History for Ft Lauderdale, FL

Monday, March 20, 2017 — View Current Conditions

Jump to Data:

Date:
Airport Code:
Recently Viewed Airport Codes: KFLL
Daily Summary
  Actual Average Record
Temperature
Mean Temperature 69°F 73°F  
Max Temperature 76°F 80°F 91°F (1965)
Min Temperature 61°F 66°F 45°F (1956)
Degree Days
Heating Degree Days 0 0  
Month to date heating degree days 6 7  
Since 1 July heating degree days 35 109  
Cooling Degree Days 4 8  
Month to date cooling degree days 144 156  
Year to date cooling degree days 600 512  
Growing Degree Days 18 (Base 50)    
Moisture
Dew Point 53°F    
Average Humidity 61    
Maximum Humidity 78    
Minimum Humidity 43    
Precipitation
Precipitation 0.00 in 0.11 in 1.20 in (1949)
Month to date precipitation 0.69 2.10  
Year to date precipitation 3.97 8.69  
Snow
Snow 0.00 in in in ()
Month to date snowfall 0.0  
Since 1 July snowfall 0.0  
Snow Depth 0.00 in    
Sea Level Pressure
Sea Level Pressure 30.14 in    
Wind
Wind Speed 10 mph (NE)    
Max Wind Speed 17 mph    
Max Gust Speed 23 mph    
Visibility 10 miles    
Events      
T = Trace of Precipitation, MM = Missing Value Source: NWS Daily Summary

Show full METARS

(help) - Comma Delimited File

Hourly Observations

Time(EDT) Temperature Dew Point Humidity Sea Level Pressure Visibility Wind Direction Wind Speed Gust Speed Precipitation Events Conditions
12:53 AM 70.0°F 54.0°F 57% 30.12 in 10.0 miles NNE 12.7 mph - N/A   Partly Cloudy
1:53 AM 69.1°F 54.0°F 58% 30.13 in 10.0 miles NNE 12.7 mph 17.3 mph N/A   Partly Cloudy
2:53 AM 69.1°F 53.1°F 57% 30.12 in 10.0 miles NE 12.7 mph - N/A   Partly Cloudy
3:53 AM 66.9°F 52.0°F 59% 30.11 in 10.0 miles NNE 10.4 mph - N/A   Partly Cloudy
4:53 AM 66.9°F 52.0°F 59% 30.11 in 10.0 miles NNE 8.1 mph - N/A   Partly Cloudy
5:53 AM 62.1°F 52.0°F 70% 30.11 in 10.0 miles NNW 5.8 mph - N/A   Partly Cloudy
6:53 AM 62.1°F 53.1°F 72% 30.13 in 10.0 miles NW 4.6 mph - N/A   Partly Cloudy
7:53 AM 61.0°F 53.1°F 75% 30.14 in 10.0 miles North 5.8 mph - N/A   Scattered Clouds
8:53 AM 68.0°F 55.0°F 63% 30.15 in 10.0 miles Variable 5.8 mph - N/A   Partly Cloudy
9:53 AM 70.0°F 51.1°F 51% 30.16 in 10.0 miles NE 9.2 mph - N/A   Mostly Cloudy
10:53 AM 75.0°F 52.0°F 44% 30.17 in 10.0 miles ENE 9.2 mph - N/A   Partly Cloudy
11:53 AM 75.0°F 54.0°F 48% 30.18 in 10.0 miles East 11.5 mph 17.3 mph N/A   Scattered Clouds
12:53 PM 75.0°F 53.1°F 46% 30.17 in 10.0 miles ENE 15.0 mph 20.7 mph N/A   Scattered Clouds
1:53 PM 73.0°F 52.0°F 48% 30.16 in 10.0 miles East 12.7 mph 20.7 mph N/A   Mostly Cloudy
2:53 PM 73.9°F 51.1°F 45% 30.14 in 10.0 miles NE 13.8 mph 17.3 mph N/A   Mostly Cloudy
3:53 PM 75.0°F 51.1°F 43% 30.13 in 10.0 miles East 12.7 mph 23.0 mph N/A   Scattered Clouds
4:53 PM 73.9°F 52.0°F 46% 30.12 in 10.0 miles ENE 9.2 mph - N/A   Partly Cloudy
5:53 PM 73.0°F 53.1°F 49% 30.12 in 10.0 miles NE 11.5 mph - N/A   Scattered Clouds
6:53 PM 71.1°F 53.1°F 53% 30.13 in 10.0 miles NE 10.4 mph - N/A   Partly Cloudy
7:53 PM 69.1°F 53.1°F 57% 30.14 in 10.0 miles ENE 8.1 mph - N/A   Partly Cloudy
8:53 PM 69.1°F 53.1°F 57% 30.14 in 10.0 miles ENE 10.4 mph - N/A   Partly Cloudy
9:53 PM 69.1°F 53.1°F 57% 30.16 in 10.0 miles East 8.1 mph - N/A   Partly Cloudy
10:53 PM 68.0°F 52.0°F 56% 30.16 in 10.0 miles ENE 8.1 mph - N/A   Partly Cloudy
11:53 PM 68.0°F 52.0°F 56% 30.15 in 10.0 miles East 6.9 mph - N/A   Partly Cloudy